User: anonymous   Login
Location: Unspecified
(0.0000°N, 0.0000°E)
Time: 13:50:32
(UTC+00:00)
Language:

GRIFEX - Orbit

View from above orbital plane
View from above orbital plane
View from above satellite
View from above satellite

Ground track
Ground track

The orbit data is extracted from the following two-line orbital elements,

1 40379U 15003D   17114.94146167 +.00006388 +00000-0 +28857-3 0  9992
2 40379 099.1212 286.3387 0142895 185.1594 174.8168 15.12697481122822
Epoch (UTC): 24 April 2017 22:35:42
Eccentricity: 0.0142895
inclination: 99.1212°
perigee height: 429 km
apogee height: 626 km
right ascension of ascending node: 286.3387°
argument of perigee: 185.1594°
revolutions per day: 15.12697481
mean anomaly at epoch: 174.8168°
orbit number at epoch: 12282

The dashed part of the orbit path shows where the satellite is in the earth's shadow,  

DLR